GFSNIL_prec_cloud_060.txt.gz
Cloud_Cover
5 0 0 0 0 0 0 0 0 0 0 0 0 0 0 0 0 0 0 0 0 0
0 0 0 0 0 0 0 0 0 0 0 0 0 0 0 0 0 0 0 1 1 4
0 0 0 0 0 0 0 0 0 0 0 0 0 0 1 5 4 5 5 5 5 5
0 0 0 0 0 0 0 0 0 0 0 0 0 1 5 5 5 6 61 80 67 5
0 0 0 0 0 0 0 0 0 0 4 5 5 5 5 5 78 100 100 100 97 81
0 0 0 0 0 0 0 0 0 4 5 5 5 6 27 99 100 100 100 100 100 100
0 0 0 0 0 0 0 2 5 5 6 10 75 100 100 100 100 100 91 94 92 99
5 5 2 0 0 0 0 5 5 69 94 100 100 100 91 94 100 100 100 100 100 100
0 0 0 0 0 5 5 5 23 71 100 100 100 90 100 100 100 100 100 100 100 100
0 0 0 0 5 5 5 6 40 100 100 100 100 100 100 100 100 100 100 100 100 100
0 0 1 5 5 17 23 99 100 100 100 100 100 100 100 98 100 100 100 100 100 100
0 1 5 5 78 100 82 100 100 100 100 100 100 98 100 100 100 100 100 100 100 100
0 5 37 99 100 100 100 100 100 100 100 100 100 100 100 100 100 100 100 100 100 100
5 8 100 100 100 100 100 100 100 100 100 100 100 100 100 100 100 100 100 100 100 100

GFSNIL_prec_cloud_063.txt.gz
Cloud_Cover
0 5 3 4 4 0 0 0 0 0 0 0 0 0 0 0 0 0 4 4 4 5
0 1 0 0 0 0 0 0 0 0 0 0 0 0 0 0 5 5 5 5 5 5
0 0 0 1 2 0 0 0 0 0 0 0 0 2 5 5 5 5 7 6 26 72
4 5 5 4 0 0 0 0 0 0 0 0 5 5 5 5 5 5 9 16 74 98
5 3 0 0 0 0 0 0 0 0 4 5 5 5 5 5 5 12 39 74 100 100
2 0 0 0 0 0 0 0 0 5 5 5 5 5 5 70 100 99 100 100 100 100
4 1 0 0 0 0 0 2 5 5 5 5 5 52 100 100 96 100 95 96 100 100
3 2 0 0 0 0 5 5 5 5 5 30 60 100 100 100 100 100 100 100 100 100
0 0 0 0 0 5 5 5 5 5 45 83 83 100 100 100 100 100 100 100 100 100
0 0 0 4 5 5 6 14 55 64 100 100 100 83 100 100 100 100 99 100 100 100
0 0 2 5 5 23 98 100 100 100 100 100 100 100 80 97 100 62 98 100 100 100
0 0 5 5 7 100 100 100 100 100 100 100 100 100 100 94 100 92 100 100 100 100
0 5 5 5 74 100 100 100 100 100 100 100 91 100 100 100 100 100 100 100 100 100
5 5 35 61 100 99 100 100 100 100 100 100 100 100 100 100 100 100 100 100 100 100

GFSNIL_prec_cloud_069.txt.gz
Cloud_Cover
0 0 0 0 0 2 4 4 0 0 1 0 0 0 0 0 0 0 0 0 0 0
0 0 5 5 5 5 4 5 5 5 5 5 4 0 0 0 0 0 0 2 5 5
6 10 9 5 5 5 5 5 5 5 5 0 0 0 0 0 0 5 5 6 22 59
100 88 61 25 5 5 5 5 5 5 3 0 0 0 0 3 5 5 52 100 100 100
94 60 48 52 8 5 5 5 5 1 0 0 0 0 5 5 22 87 100 100 100 100
4 5 4 4 0 0 0 0 0 0 0 0 2 5 19 80 100 100 100 100 100 100
0 0 0 0 0 0 2 4 5 0 0 4 6 51 100 100 100 100 100 100 100 100
9 26 52 74 86 91 90 85 5 4 5 5 19 30 100 100 100 100 100 100 100 100
100 100 100 99 39 5 1 0 5 5 11 85 100 100 100 100 100 100 100 100 100 100
100 61 5 3 0 0 0 5 10 28 92 100 100 100 100 100 100 100 100 100 100 100
42 5 2 0 0 3 5 5 29 80 100 100 99 100 100 100 100 87 99 100 100 99
5 2 0 0 5 5 5 78 100 100 100 100 98 97 100 100 100 100 100 96 100 99
0 3 5 5 5 61 90 100 100 100 100 100 81 73 95 100 100 100 89 100 100 100
5 5 5 5 31 77 100 100 100 100 100 90 100 100 94 100 100 100 98 100 100 100

GFSNIL_prec_cloud_072.txt.gz
Cloud_Cover
0 0 0 0 1 2 4 4 5 5 5 5 5 5 5 5 2 0 0 0 0 0
2 2 5 5 5 5 5 5 5 5 5 5 5 5 5 5 5 5 5 5 0 0
5 4 4 4 4 5 3 2 1 3 4 5 4 5 4 0 1 0 0 0 5 5
0 0 0 0 0 0 0 0 0 0 0 0 0 0 0 0 0 0 3 5 10 90
0 0 0 0 0 0 0 0 0 1 4 4 4 5 4 5 5 5 16 45 100 100
0 0 0 0 5 39 72 98 100 100 100 99 64 5 8 6 29 100 100 100 100 100
0 0 0 2 5 89 100 100 100 100 98 100 85 26 5 5 6 97 100 100 100 100
0 0 1 5 100 100 100 100 96 52 5 5 5 5 5 93 100 100 100 99 87 88
0 6 98 100 100 100 65 5 14 5 5 5 5 12 100 100 100 100 100 100 100 100
5 20 47 60 22 3 0 0 0 5 5 8 75 100 100 100 100 100 100 100 100 78
5 3 1 0 0 0 0 2 5 6 90 100 100 100 99 100 100 100 100 99 100 99
0 0 0 0 2 5 5 5 56 100 100 100 100 74 100 100 100 100 100 90 99 98
0 0 0 0 5 5 5 7 100 100 100 100 78 100 100 100 100 100 100 100 100 100
0 1 5 4 5 5 5 49 100 100 100 99 100 100 100 100 100 100 88 100 100 100

GFSNIL_prec_cloud_075.txt.gz
Cloud_Cover
0 0 0 0 0 0 0 0 0 0 0 0 0 0 0 0 0 0 0 0 5 5
0 0 0 0 0 0 0 0 0 0 0 0 0 0 0 0 0 0 0 0 0 0
0 0 0 0 0 0 0 0 0 0 0 0 0 0 0 0 2 3 6 18 4 2
0 0 0 0 0 0 0 0 0 0 0 0 2 5 5 54 55 46 19 5 5 12
0 0 0 0 0 0 0 0 0 0 0 4 5 15 6 79 99 38 50 36 98 100
0 0 0 0 0 0 0 0 3 5 37 25 87 100 64 54 25 30 44 42 95 100
0 0 0 0 0 0 0 0 2 5 6 6 3 1 5 5 5 5 35 99 100 100
0 0 0 0 0 0 0 0 0 0 0 0 2 5 5 5 89 99 100 100 98 100
0 0 0 0 0 0 0 0 0 0 0 5 5 5 40 100 99 100 100 100 100 100
0 0 0 0 0 0 0 0 0 1 5 5 21 100 100 100 100 100 100 100 100 100
0 0 0 0 0 0 0 0 2 5 5 5 97 89 96 100 100 100 100 100 99 100
0 0 0 0 0 0 0 4 5 5 8 89 58 64 98 100 100 100 100 100 100 100
0 0 0 0 3 0 1 5 2 5 76 96 100 100 100 100 100 100 100 100 100 100
5 5 5 5 4 3 5 2 5 98 100 100 100 100 100 100 100 94 86 100 100 100